When you browse on this site, cookies collect data to enhance your experience and personalize the content and advertising you see.
Visit our Privacy Policy to learn more. By continuing to use the site, you agree to this use of cookies and data.
  • In Slovakia
  • List of Countries
  • For 7 days
  • Water Temperature
  • Satellite Maps
  • Weather Map
  • Weather Widgets
  • user-avatar
    Login

    Hourly Weather Namibe

    Today, 20 November, Tuesday

    Time Temperature Precipitation Wind Pressure Humidity
    00:00 +27°C° 0 mm 4 mps 757 mmHg 61%
    01:00 +27°C° 0 mm 3 mps 757 mmHg 60%
    02:00 +27°C° 0 mm 3 mps 757 mmHg 62%
    03:00 +26°C° 0 mm 3 mps 757 mmHg 65%
    04:00 +26°C° 0 mm 3 mps 756 mmHg 67%
    05:00 +26°C° 0 mm 3 mps 757 mmHg 67%
    06:00 +26°C° 0 mm 3 mps 757 mmHg 67%
    07:00 +26°C° 0 mm 2 mps 758 mmHg 66%
    08:00 +28°C° 0.1 mm 3 mps 758 mmHg 58%
    09:00 +31°C° 0.1 mm 3 mps 757 mmHg 50%
    10:00 +34°C° 0.1 mm 3 mps 757 mmHg 42%
    11:00 +34°C° 0.1 mm 4 mps 757 mmHg 42%
    12:00 +34°C° 0.1 mm 4 mps 757 mmHg 42%
    13:00 +35°C° 0 mm 5 mps 757 mmHg 40%
    14:00 +34°C° 0 mm 5 mps 756 mmHg 40%
    15:00 +34°C° 0 mm 5 mps 756 mmHg 40%
    16:00 +33°C° 0 mm 5 mps 756 mmHg 41%
    17:00 +32°C° 0 mm 4 mps 756 mmHg 45%
    18:00 +30°C° 0 mm 3 mps 757 mmHg 48%
    19:00 +29°C° 0 mm 3 mps 757 mmHg 52%
    20:00 +29°C° 0 mm 2 mps 757 mmHg 53%
    21:00 +29°C° 0 mm 2 mps 758 mmHg 54%
    22:00 +29°C° 0 mm 2 mps 758 mmHg 55%
    23:00 +29°C° 0.1 mm 2 mps 758 mmHg 56%

    Tomorrow, 21 November, Wednesday

    Time Temperature Precipitation Wind Pressure Humidity
    00:00 +29°C° 0.1 mm 2 mps 757 mmHg 56%
    01:00 +29°C° 0.1 mm 2 mps 757 mmHg 57%
    02:00 +29°C° 0 mm 2 mps 757 mmHg 58%
    03:00 +28°C° 0 mm 2 mps 757 mmHg 59%
    04:00 +28°C° 0 mm 2 mps 757 mmHg 60%
    05:00 +28°C° 0 mm 2 mps 757 mmHg 61%
    06:00 +28°C° 0 mm 2 mps 757 mmHg 62%
    07:00 +28°C° 0 mm 2 mps 758 mmHg 62%
    08:00 +30°C° 0 mm 2 mps 758 mmHg 57%
    09:00 +33°C° 0 mm 3 mps 758 mmHg 51%
    10:00 +35°C° 0 mm 4 mps 758 mmHg 45%
    11:00 +35°C° 0 mm 4 mps 757 mmHg 45%
    12:00 +35°C° 0 mm 4 mps 757 mmHg 45%
    13:00 +36°C° 0 mm 4 mps 756 mmHg 45%
    14:00 +35°C° 0 mm 5 mps 756 mmHg 46%
    15:00 +35°C° 0 mm 5 mps 756 mmHg 46%
    16:00 +34°C° 0 mm 5 mps 755 mmHg 46%
    17:00 +33°C° 0 mm 4 mps 756 mmHg 51%
    18:00 +30°C° 0 mm 4 mps 756 mmHg 57%
    19:00 +29°C° 0 mm 3 mps 757 mmHg 62%
    20:00 +29°C° 0 mm 3 mps 757 mmHg 64%
    21:00 +28°C° 0 mm 2 mps 758 mmHg 66%
    22:00 +28°C° 0 mm 2 mps 758 mmHg 68%
    23:00 +28°C° 0 mm 2 mps 758 mmHg 69%

    Day after tomorrow, 22 November, Thursday

    Time Temperature Precipitation Wind Pressure Humidity
    00:00 +28°C° 0 mm 2 mps 758 mmHg 70%
    01:00 +28°C° 0 mm 2 mps 758 mmHg 70%
    02:00 +27°C° 0 mm 2 mps 757 mmHg 72%
    03:00 +27°C° 0 mm 2 mps 757 mmHg 73%
    04:00 +27°C° 0 mm 2 mps 757 mmHg 75%
    05:00 +27°C° 0 mm 1 mps 757 mmHg 74%
    06:00 +27°C° 0 mm 1 mps 757 mmHg 73%
    07:00 +28°C° 0 mm 1 mps 758 mmHg 72%
    08:00 +29°C° 0 mm 2 mps 758 mmHg 65%
    09:00 +31°C° 0 mm 2 mps 758 mmHg 57%
    10:00 +34°C° 0 mm 3 mps 758 mmHg 49%
    11:00 +34°C° 0 mm 4 mps 758 mmHg 49%
    12:00 +35°C° 0 mm 4 mps 757 mmHg 49%
    13:00 +35°C° 0 mm 5 mps 756 mmHg 49%
    14:00 +34°C° 0 mm 5 mps 756 mmHg 53%
    15:00 +33°C° 0 mm 5 mps 756 mmHg 56%
    16:00 +32°C° 0 mm 5 mps 755 mmHg 60%
    17:00 +30°C° 0 mm 5 mps 756 mmHg 64%
    18:00 +29°C° 0 mm 4 mps 756 mmHg 68%
    19:00 +28°C° 0 mm 4 mps 757 mmHg 72%
    20:00 +27°C° 0 mm 3 mps 758 mmHg 72%
    21:00 +27°C° 0 mm 3 mps 758 mmHg 73%
    22:00 +27°C° 0 mm 2 mps 759 mmHg 74%
    23:00 +27°C° 0 mm 2 mps 758 mmHg 75%

    23 November, Friday

    Time Temperature Precipitation Wind Pressure Humidity
    00:00 +27°C° 0 mm 2 mps 758 mmHg 76%
    01:00 +26°C° 0 mm 2 mps 758 mmHg 77%
    02:00 +26°C° 0 mm 2 mps 757 mmHg 78%
    03:00 +26°C° 0 mm 1 mps 757 mmHg 79%
    04:00 +26°C° 0 mm 1 mps 757 mmHg 79%
    05:00 +26°C° 0 mm 1 mps 757 mmHg 78%
    06:00 +27°C° 0 mm 1 mps 758 mmHg 76%
    07:00 +27°C° 0 mm 2 mps 758 mmHg 75%
    08:00 +29°C° 0 mm 2 mps 758 mmHg 67%
    09:00 +30°C° 0 mm 2 mps 758 mmHg 60%
    10:00 +33°C° 0 mm 3 mps 758 mmHg 53%
    11:00 +34°C° 0 mm 4 mps 757 mmHg 50%
    12:00 +35°C° 0 mm 4 mps 756 mmHg 48%
    13:00 +36°C° 0 mm 5 mps 756 mmHg 45%
    14:00 +35°C° 0 mm 5 mps 755 mmHg 48%
    15:00 +34°C° 0 mm 6 mps 755 mmHg 51%
    16:00 +33°C° 0 mm 6 mps 754 mmHg 54%
    17:00 +30°C° 0 mm 6 mps 755 mmHg 60%
    18:00 +29°C° 0 mm 6 mps 756 mmHg 65%
    19:00 +27°C° 0 mm 5 mps 756 mmHg 70%
    20:00 +27°C° 0 mm 5 mps 757 mmHg 70%
    21:00 +27°C° 0 mm 4 mps 758 mmHg 71%
    22:00 +27°C° 0 mm 3 mps 758 mmHg 71%
    23:00 +26°C° 0 mm 3 mps 758 mmHg 71%

    24 November, Saturday

    Time Temperature Precipitation Wind Pressure Humidity
    00:00 +26°C° 0 mm 3 mps 758 mmHg 71%
    01:00 +26°C° 0 mm 2 mps 757 mmHg 71%
    02:00 +26°C° 0 mm 2 mps 757 mmHg 72%
    03:00 +26°C° 0 mm 2 mps 757 mmHg 72%
    04:00 +26°C° 0 mm 2 mps 757 mmHg 73%
    05:00 +26°C° 0 mm 2 mps 757 mmHg 73%
    06:00 +26°C° 0 mm 2 mps 758 mmHg 72%
    07:00 +26°C° 0 mm 2 mps 758 mmHg 71%
    08:00 +28°C° 0 mm 2 mps 758 mmHg 63%
    09:00 +31°C° 0 mm 2 mps 758 mmHg 55%
    10:00 +34°C° 0 mm 3 mps 758 mmHg 46%
    11:00 +34°C° 0 mm 4 mps 757 mmHg 44%
    12:00 +35°C° 0 mm 5 mps 757 mmHg 41%
    13:00 +36°C° 0 mm 5 mps 756 mmHg 38%
    14:00 +35°C° 0 mm 6 mps 756 mmHg 40%
    15:00 +34°C° 0 mm 6 mps 755 mmHg 41%
    16:00 +33°C° 0 mm 6 mps 755 mmHg 43%
    17:00 +32°C° 0 mm 6 mps 756 mmHg 48%
    18:00 +29°C° 0 mm 5 mps 756 mmHg 54%
    19:00 +28°C° 0 mm 5 mps 757 mmHg 59%
    20:00 +27°C° 0 mm 4 mps 758 mmHg 59%
    21:00 +27°C° 0 mm 4 mps 758 mmHg 59%
    22:00 +26°C° 0 mm 3 mps 759 mmHg 59%
    23:00 +26°C° 0 mm 3 mps 758 mmHg 59%

    25 November, Sunday

    Time Temperature Precipitation Wind Pressure Humidity
    00:00 +26°C° 0 mm 3 mps 758 mmHg 59%
    01:00 +26°C° 0 mm 3 mps 757 mmHg 59%
    02:00 +26°C° 0 mm 3 mps 757 mmHg 59%
    03:00 +26°C° 0 mm 3 mps 757 mmHg 59%
    04:00 +26°C° 0 mm 2 mps 757 mmHg 59%
    05:00 +26°C° 0 mm 2 mps 757 mmHg 58%
    06:00 +26°C° 0 mm 3 mps 758 mmHg 57%
    07:00 +26°C° 0 mm 3 mps 758 mmHg 56%
    08:00 +28°C° 0 mm 3 mps 758 mmHg 47%
    09:00 +30°C° 0 mm 3 mps 758 mmHg 38%
    10:00 +34°C° 0 mm 3 mps 758 mmHg 29%
    11:00 +34°C° 0 mm 4 mps 757 mmHg 28%
    12:00 +35°C° 0 mm 5 mps 756 mmHg 28%
    13:00 +36°C° 0 mm 6 mps 756 mmHg 27%
    14:00 +35°C° 0 mm 6 mps 755 mmHg 30%
    15:00 +34°C° 0 mm 6 mps 755 mmHg 33%
    16:00 +33°C° 0 mm 6 mps 755 mmHg 36%
    17:00 +30°C° 0 mm 6 mps 755 mmHg 43%
    18:00 +29°C° 0 mm 6 mps 756 mmHg 50%
    19:00 +27°C° 0 mm 5 mps 756 mmHg 57%
    20:00 +26°C° 0 mm 5 mps 757 mmHg 59%
    21:00 +26°C° 0 mm 4 mps 757 mmHg 61%
    22:00 +26°C° 0 mm 4 mps 758 mmHg 62%
    23:00 +25°C° 0 mm 4 mps 757 mmHg 63%
    Show more